Miscellaneous Local Product
Issued by NWS Hastings, NE

Home | Current Version | Previous Version | Graphics & Text | Print | Product List | Glossary On
Versions: 1 2 3 4 5 6 7 8 9 10 11 12 13 14 15 16 17 18 19 20 21 22 23 24 25 26 27 28 29 30 31 32 33 34 35 36 37 38 39 40 41 42 43 44 45 46 47 48 49 50
000
AXUS43 KGID 201202
MISGRI

GID CWA HOURLY WEATHER ROUNDUP
NATIONAL WEATHER SERVICE HASTINGS NE
600 AM CST MON NOV 20 2017

NOTE: "FAIR" INDICATES FEW OR NO CLOUDS BELOW 12,000 FEET WITH NO
SIGNIFICANT WEATHER AND/OR OBSTRUCTIONS TO VISIBILITY.

...SOUTH CENTRAL NEBRASKA...

CITY           SKY/WX    TMP DP  RH WIND       PRES   REMARKS
GRAND ISLAND   CLEAR     36  26  67 SW13      29.75F WCI  27
KEARNEY        CLOUDY    34  22  61 SW10      29.77S WCI  26
HASTINGS       CLOUDY    31  23  72 SW7       29.77F WCI  24
ORD            CLOUDY    30  21  69 SW7       29.70F WCI  23
YORK           PTCLDY    30  25  80 CALM      29.76F
AURORA         CLEAR     32  25  75 SW14      29.74F WCI  22
LEXINGTON      CLOUDY    23  18  82 NW5       29.76F WCI  17
HOLDREGE       CLOUDY    38  21  50 W6        29.77F WCI  33
HEBRON         CLOUDY    38  23  53 SW9       29.82F WCI  32

...NEBRASKA PANHANDLE...

CITY           SKY/WX    TMP DP  RH WIND       PRES   REMARKS
CHADRON        CLOUDY    36  17  46 SW5       29.68F WCI  32
ALLIANCE       CLOUDY    44  11  26 W17       29.71F
SCOTTSBLUFF    CLOUDY    49   7  18 W22G29    29.75F
SIDNEY         CLOUDY    33  13  43 W6        29.78F WCI  28

...WESTERN AND NORTH CENTRAL NEBRASKA...

CITY           SKY/WX    TMP DP  RH WIND       PRES   REMARKS
VALENTINE      CLOUDY    35  18  49 SW12      29.64F WCI  27
AINSWORTH      CLOUDY    35  19  53 W12       29.64F WCI  26
ONEILL         CLOUDY    31  22  70 S6        29.65S WCI  25
BROKEN BOW     CLOUDY    38  19  46 W15       29.71F WCI  29
IMPERIAL       CLOUDY    24  15  68 W5        29.79F WCI  18
NORTH PLATTE   CLOUDY    20  16  84 NW3       29.77F
MCCOOK         CLOUDY    28  21  75 W9        29.80S WCI  19

...EASTERN NEBRASKA...

CITY           SKY/WX    TMP DP  RH WIND       PRES   REMARKS
NORFOLK        CLOUDY    31  25  78 SW15      29.68F WCI  20
SO SIOUX CITY  CLOUDY    27  23  85 SE9       29.70F WCI  18
TEKAMAH        CLEAR     34  24  67 S12       29.74F WCI  25
COLUMBUS       CLOUDY    28  23  81 S7        29.74F WCI  21
ALBION         CLOUDY    33  25  71 SW6       29.71S WCI  28
OMAHA EPPLEY   PTCLDY    33  25  72 S13       29.79F WCI  24
OFFUTT AFB     CLEAR     26  22  84 E5        29.79F WCI  21
MILLARD        CLEAR     38  26  61 SE5       29.79F WCI  35
LINCOLN        CLOUDY    36  24  62 SE6       29.80F WCI  31
NEBRASKA CITY  CLOUDY    37  27  68 SW15      29.82S WCI  28
BEATRICE       CLOUDY    37  24  60 S8        29.83F WCI  31
FALLS CITY     CLOUDY    41  26  55 S9        29.87S

...NORTHERN KANSAS...

CITY           SKY/WX    TMP DP  RH WIND       PRES   REMARKS
GOODLAND       CLOUDY    30  15  53 SW9       29.82S WCI  22
HILL CITY      CLOUDY    28  21  75 W7        29.81F WCI  21
NORTON         SUNNY     28  18  64 SW12      29.78F WCI  18
PHILLIPSBURG   CLEAR     25  19  80 W3        29.81F
SMITH CENTER   CLEAR     25  19  80 S8        29.82F WCI  16
HAYS           CLOUDY    30  20  66 W7        29.85F WCI  23
RUSSELL        CLOUDY    34  21  59 S15       29.82F WCI  24
CONCORDIA      PTCLDY    42  21  43 S20G28    29.83F
SALINA         CLEAR     40  24  53 S12       29.89F WCI  33
TOPEKA         CLOUDY    43  27  53 S10       29.94F



USA.gov is the U.S. government's official web portal to all federal, state and local government web resources and services.